Vorticity
nan nan nan nan nan nan nan nan nan nan nan nan nan nan nan nan nan nan nan nan nan nan nan nan nan nan nan nan nan nan nan nan nan nan nan nan nan nan nan nan nan nan nan
nan 9 7 8 6 6 6 6 6 6 5 5 6 5 5 6 6 5 5 5 5 5 5 5 5 5 5 5 4 5 5 4 2 2 4 8 9 6 6 7 6 7 nan
nan 7 5 8 8 7 7 7 6 6 6 6 5 5 6 5 5 7 6 5 5 5 6 6 6 5 4 4 5 5 3 3 5 8 8 7 7 7 6 6 8 7 nan
nan 5 4 5 10 10 8 7 7 7 6 6 5 6 6 5 6 7 6 5 5 5 5 5 5 5 4 4 5 5 4 3 7 13 9 5 6 5 5 5 5 5 nan
nan 5 2 4 6 7 9 9 8 7 7 8 7 7 6 6 5 6 7 6 4 5 5 5 5 4 4 4 4 4 4 5 8 8 7 7 7 5 5 5 5 4 nan
nan 5 2 4 5 7 10 10 8 7 7 7 8 8 8 8 7 6 7 7 5 5 4 4 4 4 3 4 4 3 4 6 7 7 6 8 9 5 5 4 4 5 nan
nan 7 2 1 7 7 8 9 11 10 9 8 7 9 11 11 9 8 6 6 6 6 5 5 5 4 4 4 3 3 4 5 7 6 7 8 9 8 5 4 4 4 nan
nan 8 3 0 3 4 7 8 9 9 9 8 7 8 11 13 11 11 13 11 8 6 7 7 6 6 5 4 5 5 4 5 6 6 7 7 8 12 8 5 5 4 nan
nan 8 7 4 1 1 3 6 6 7 7 6 6 7 6 6 9 9 10 11 13 11 11 11 8 8 7 7 5 5 6 6 7 6 7 7 7 12 12 5 5 6 nan
nan 7 7 8 8 5 -1 -1 4 4 5 6 5 6 5 3 2 3 5 10 11 12 12 12 14 11 8 8 7 6 6 8 8 8 8 4 7 10 11 6 5 7 nan
nan 6 7 7 8 9 6 1 -0 -0 1 4 4 6 10 6 3 1 1 5 4 7 9 10 16 17 13 10 9 8 11 10 7 7 7 2 5 9 7 8 6 6 nan
nan 8 8 7 8 11 7 6 5 4 3 2 5 7 8 6 5 5 1 1 4 5 6 6 8 16 18 14 9 10 10 7 9 8 5 5 7 8 7 7 6 6 nan
nan 6 7 9 8 9 9 9 8 6 6 4 4 9 9 7 7 8 7 5 1 5 8 5 8 6 8 11 10 9 8 9 8 8 7 7 8 13 9 5 5 6 nan
nan 6 7 8 8 9 10 7 8 8 7 6 4 7 11 8 6 8 7 7 8 6 6 9 7 5 6 7 9 10 10 9 8 8 8 8 8 13 11 5 5 6 nan
nan 6 6 8 8 8 10 8 7 7 7 6 6 6 9 8 7 8 7 7 7 7 7 7 7 7 7 7 8 8 8 10 9 8 9 11 9 10 10 8 6 5 nan
nan 7 7 7 8 9 7 9 9 7 7 7 6 6 8 9 8 8 7 7 7 8 7 7 8 8 9 7 6 7 9 8 8 8 9 11 12 11 11 8 6 7 nan
nan 7 8 7 7 8 8 8 8 7 8 7 6 5 7 8 8 9 8 7 7 7 7 9 9 8 8 8 8 8 8 7 7 8 9 9 13 12 11 11 9 7 nan
nan 7 7 6 7 7 8 8 7 7 8 7 7 5 5 7 8 10 8 6 7 8 8 8 7 8 8 8 8 8 8 7 8 9 8 9 8 10 13 13 10 11 nan
nan 7 7 7 7 8 8 8 7 7 8 7 7 6 5 7 8 10 8 6 8 9 8 7 8 8 6 8 8 8 10 8 7 8 8 8 8 8 9 12 14 12 nan
nan 8 8 7 7 10 10 9 8 7 7 7 6 5 6 7 7 9 8 7 8 8 7 6 8 9 10 9 8 12 10 8 9 9 9 10 9 8 8 9 11 14 nan
nan 8 8 8 8 9 8 10 8 7 8 6 7 5 7 6 7 9 8 7 7 7 7 8 8 8 10 11 11 11 12 13 13 9 10 10 9 10 10 10 8 8 nan
nan 7 8 7 8 9 9 9 8 7 8 7 6 7 6 6 7 8 8 7 7 8 7 8 9 10 8 8 12 9 10 11 12 12 11 8 10 9 9 10 10 9 nan
nan 7 8 7 8 8 8 10 10 10 8 6 5 7 6 6 8 8 8 8 8 8 7 7 8 8 7 6 10 10 8 5 7 10 8 7 6 8 9 10 11 11 nan
nan 6 6 8 8 7 9 9 9 8 8 7 6 6 5 7 8 7 8 8 9 8 7 7 7 8 8 8 9 9 6 6 6 6 2 4 9 10 9 9 11 11 nan
nan 7 7 7 8 8 8 8 7 7 7 7 6 6 8 9 8 8 8 8 9 8 8 7 7 8 8 8 7 7 8 9 9 5 5 7 6 7 9 8 7 9 nan
nan nan nan nan nan nan nan nan nan nan nan nan nan nan nan nan nan nan nan nan nan nan nan nan nan nan nan nan nan nan nan nan nan nan nan nan nan nan nan nan nan nan nan
CAPE
419 370 1144 1605 1787 1650 1481 1546 1655 1598 1531 1425 1400 1361 1092 831 639 658 355 227 266 659 840 566 69 0 1 426 541 520 808 636 654 654 840 735 931 830 684 678 1008 686 922
36 263 999 1222 1305 1275 1280 1372 1431 1577 1759 1341 936 710 683 609 601 830 468 193 77 26 146 124 9 0 0 2 87 236 381 425 380 232 319 486 721 842 638 690 716 774 1010
0 0 268 783 985 1136 1106 1173 1271 1288 1266 1158 1059 1224 973 774 1091 833 533 412 318 152 18 2 1 0 0 0 0 14 82 61 22 52 6 296 369 612 557 665 884 887 963
0 0 0 87 582 888 1009 1045 1071 1104 1093 1029 1068 1147 1044 992 1056 952 723 483 316 304 163 26 0 3 0 0 0 0 13 11 6 17 2 132 643 547 600 727 940 925 988
0 0 0 1 5 13 154 686 939 1059 1160 1068 1053 1093 1031 897 803 844 836 740 501 456 386 178 87 25 51 30 0 0 10 6 0 0 7 16 298 578 458 546 520 538 621
0 0 0 1 2 3 0 0 0 4 112 258 323 436 709 695 658 674 614 650 576 504 579 505 279 206 177 123 66 44 47 0 0 0 0 26 165 685 508 436 504 482 306
0 0 0 0 4 7 3 0 0 0 0 0 0 0 0 30 573 619 565 553 479 457 471 520 551 445 331 340 297 262 217 9 0 0 0 0 44 613 645 254 328 181 178
0 0 0 0 0 4 11 8 4 2 1 0 0 0 0 0 0 235 456 401 328 324 323 367 366 496 444 354 363 516 496 52 0 0 0 0 9 519 507 229 453 265 182
0 0 0 0 0 0 2 4 4 0 0 0 0 0 0 0 0 0 0 0 147 207 275 419 369 385 334 371 272 387 312 120 0 0 0 0 0 463 441 517 532 701 696
0 0 0 0 0 0 0 1 0 0 0 0 0 0 0 0 0 0 0 0 0 0 0 2 321 340 362 425 329 226 50 0 0 0 0 0 0 415 368 756 871 725 537
0 0 0 0 0 0 0 0 0 0 0 0 0 0 0 0 0 0 0 0 0 0 0 0 0 171 303 137 127 68 28 0 0 0 0 0 2 199 325 496 901 749 656
0 0 0 0 0 0 0 0 0 0 0 0 0 0 0 0 0 0 0 0 0 0 0 0 0 0 3 0 0 0 0 0 0 0 0 0 0 188 459 235 687 883 772
0 0 0 0 0 0 0 0 0 0 0 0 0 0 0 0 0 0 0 0 0 0 0 0 0 0 0 0 0 0 0 0 0 0 0 0 0 0 633 596 592 827 1048
0 0 0 0 0 0 0 0 0 0 0 0 0 0 0 0 0 0 0 0 0 0 0 0 0 0 0 0 0 0 0 0 0 0 0 0 0 240 784 861 889 690 796
0 0 0 0 0 0 0 0 0 0 0 0 0 0 0 0 0 0 0 0 0 0 0 0 0 0 0 0 0 0 0 0 0 0 2 0 0 26 716 745 655 629 869
0 0 0 0 0 0 0 0 0 0 0 0 0 0 0 0 0 0 0 0 0 0 0 0 0 0 0 0 0 0 0 0 0 0 5 0 0 0 289 531 516 428 512
0 0 0 0 0 0 0 0 0 0 0 0 0 0 0 0 0 0 0 0 0 0 0 0 0 0 0 0 0 0 0 0 0 0 0 8 5 0 0 196 352 340 794
0 0 0 0 0 0 0 0 0 0 0 0 0 0 0 0 0 0 0 0 0 0 0 0 0 0 0 0 0 0 0 0 0 0 0 0 0 62 1 0 40 261 611
0 0 0 0 0 0 0 0 0 0 0 0 0 0 0 0 0 0 0 0 0 0 0 0 0 0 0 0 0 0 0 0 0 0 0 0 0 0 20 31 0 12 292
0 0 0 0 0 0 0 0 0 0 0 0 0 0 0 0 0 0 0 0 0 0 0 0 0 0 0 0 0 0 0 0 0 0 0 0 0 0 0 5 1 0 0
0 0 0 0 0 0 0 0 0 0 0 0 0 0 0 0 0 0 0 0 0 0 0 0 0 0 0 0 0 0 0 0 0 0 0 0 0 0 0 0 0 0 0
0 0 0 0 0 0 0 0 0 0 0 0 0 0 0 0 0 0 0 0 0 0 0 0 0 0 0 0 0 0 1 0 0 0 0 0 0 0 0 0 0 0 0
0 0 0 0 0 0 0 0 0 0 0 0 0 0 0 0 0 0 0 0 0 0 0 0 0 0 0 0 0 0 0 0 0 0 0 0 0 0 0 0 0 0 0
0 0 0 0 0 0 0 0 0 0 0 0 0 0 0 0 0 0 0 0 0 0 0 0 0 0 0 0 0 0 0 0 0 0 0 0 0 0 0 0 0 0 0
0 0 0 0 0 0 0 0 0 0 0 0 0 0 0 0 0 0 0 0 0 0 0 0 0 0 0 0 0 0 0 0 0 0 0 0 0 0 0 0 0 0 0
0 0 0 0 0 0 0 0 0 0 0 0 0 0 0 0 0 0 0 0 0 0 0 0 0 0 0 0 0 0 0 0 0 0 0 0 0 0 0 0 0 0 0